[[{"header":{"parameterUnit":"m.s-1","parameterCategory":1,"la1":30.2991,"la2":30.254,"lo1":-89.0895,"lo2":-89.0444,"dy":0.0017,"dx":0.0017,"nx":28,"ny":28,"refTime":"2024-10-01T03:00:00:Z","depth":0,"parameterNumber":2,"parameterNumberName":"U-component_of_WINDS"},"data":[0,0,0,0,0,0,0,0,0,0,0,0,0,0,0,0,0,0,0,0,0,0,0,0,0,0,0,0,0,0,0,0,0,0,0,0,0,0,0,0,0,0,0,0,0,0,0,0,0,0,0,0,0,0,0,0,0,0,0.1754,0.1756,0,0.1875,0.1877,0.1878,0.1892,0.1891,0.1889,0.1888,0.2018,0.2022,0.2027,0,0,0,0,0,0,0,0,0,0,0,0,0,0.1544,0.1547,0.1754,0.1756,0.1757,0.1875,0.1877,0.1878,0.1892,0.1891,0.1889,0.1888,0.2016,0.2021,0.2027,0,0,0,0,0,0,0,0,0,0,0,0,0,0.1647,0.1549,0.1754,0.1778,0.1781,0.1875,0.1877,0.1879,0.1892,0.1891,0.1889,0.1887,0.2014,0.2021,0.2028,0.2107,0,0,0.2049,0.2052,0,0,0,0,0,0,0,0,0.1641,0.1655,0.1773,0.1777,0.1781,0.1866,0.185,0.1956,0.1893,0.185,0.1888,0.1886,0.1969,0.198,0.2007,0.2113,0.2119,0.2049,0.2054,0.2056,0.2058,0,0,0,0,0,0,0,0.1634,0.165,0.1802,0.1775,0.1779,0.1786,0.1798,0.187,0.1919,0.1854,0.1855,0.1869,0.1971,0.2,0.201,0.212,0.2049,0.2055,0.206,0.2062,0.2305,0.2308,0,0,0,0,0,0,0.1621,0.1644,0.1798,0.1806,0.1705,0.1791,0.1805,0.1841,0.1918,0.1928,0.1871,0.1869,0.1989,0.2002,0.2014,0.2117,0.2056,0.2063,0.2067,0.2303,0.2306,0.2308,0,0,0,0,0,0,0.1617,0.1635,0.1794,0.1725,0.1746,0.1797,0.1837,0.1844,0.1873,0.193,0.194,0.1891,0.1988,0.2005,0.2085,0.2121,0.2066,0.2072,0.23,0.2304,0.2307,0.2319,0,0,0,0,0,0,0.1611,0.1633,0.1661,0.1726,0.1749,0.186,0.1839,0.1848,0.1884,0.1884,0.1952,0.1961,0.1988,0.2075,0.2092,0.213,0.2078,0.2297,0.2302,0.2306,0.2316,0.2323,0.2329,0,0,0,0,0,0.1603,0.166,0.1663,0.1681,0.1785,0.1861,0.1875,0.1903,0.1887,0.1918,0.1956,0.1959,0.2114,0.2083,0.2102,0.2143,0.2295,0.2301,0.2306,0.2313,0.2322,0.2329,0,0,0,0,0,0,0.1599,0.1668,0.1672,0.1751,0.18,0.1863,0.1903,0.191,0.1966,0.1963,0.1997,0.2013,0.2093,0.2126,0.2089,0.2227,0.2204,0.2213,0.2203,0.2211,0.2217,0.2209,0.2083,0,0,0,0,0,0.1607,0.166,0.1719,0.1783,0.1808,0.1851,0.1885,0.1903,0.1956,0.1977,0.202,0.2074,0.2135,0.2174,0.2233,0.2321,0.2339,0.2359,0.2365,0.237,0.2379,0.2433,0.2444,0.2326,0.2326,0.2326,0,0,0.1624,0.1669,0.1701,0.1784,0.1824,0.1882,0.1868,0.1929,0.1974,0.1987,0.2066,0.21,0.2162,0.2248,0.2288,0.2278,0.2415,0.2377,0.238,0.2386,0.244,0.2451,0.2461,0.2329,0.2329,0.2328,0,0,0.1687,0.1724,0.1784,0.1825,0.1886,0.1915,0.193,0.1993,0.2017,0.2096,0.2109,0.2164,0.2267,0.2313,0.2349,0.2435,0.2442,0.2453,0.2487,0.254,0.2549,0.2558,0.2593,0.2605,0.2461,0.2461,0.2461,0,0.1701,0.1787,0.1814,0.1876,0.1915,0.1928,0.1992,0.2031,0.2109,0.2137,0.2124,0.2258,0.23,0.24,0.2421,0.2448,0.247,0.2446,0.2545,0.2554,0.2563,0.2597,0.261,0.2462,0.2462,0.2462,0.2462,0,0.1804,0.1864,0.1906,0.1981,0.2024,0.2086,0.2127,0.2168,0.2183,0.2215,0.23,0.2351,0.2424,0.2448,0.2463,0.2552,0.2544,0.2538,0.2516,0.2575,0.2608,0.2621,0.2464,0.2464,0.2463,0.2463,0,0,0.1866,0.1958,0.1973,0.201,0.2081,0.2129,0.2195,0.2265,0.2302,0.2356,0.2415,0.2505,0.2501,0.2543,0.2563,0.2609,0.268,0.2598,0.2601,0.2616,0.2788,0.2795,0.2809,0.2685,0.2688,0.269,0.2784,0,0.1939,0.2054,0.2083,0.2182,0.2242,0.2258,0.2316,0.2368,0.2401,0.2458,0.2495,0.256,0.2547,0.2574,0.262,0.2662,0.2716,0.2655,0.2745,0.2748,0.2731,0.2825,0.2831,0.2918,0.2797,0.2799,0.28,0,0.2039,0.2097,0.2202,0.2271,0.2297,0.2348,0.2418,0.2471,0.2532,0.2554,0.2602,0.262,0.2694,0.2666,0.2771,0.2729,0.2768,0.2795,0.2799,0.2811,0.2779,0.2843,0.2945,0.296,0.282,0.2818,0.2817,0,0.2079,0.2183,0.2261,0.2291,0.2371,0.2408,0.2444,0.2503,0.2546,0.2607,0.2636,0.2706,0.2745,0.2801,0.2839,0.2814,0.2943,0.2917,0.2966,0.2966,0.2994,0.2992,0.3107,0.3013,0.3013,0.3013,0.3012,0,0.2159,0.2225,0.228,0.2329,0.2404,0.2438,0.2513,0.255,0.2603,0.2662,0.2681,0.2736,0.2781,0.2844,0.2874,0.296,0.2976,0.2999,0.3007,0.2999,0.2997,0.3027,0.3023,0.3016,0.3015,0.3015,0.3014,0,0.2216,0.2256,0.2343,0.2413,0.2432,0.2485,0.2547,0.2597,0.2631,0.2706,0.2726,0.2781,0.2857,0.29,0.2994,0.3015,0.3112,0.3115,0.3091,0.3095,0.3144,0.314,0.3285,0.3308,0.3195,0.3196,0.3197,0,0.2266,0.2317,0.2394,0.2434,0.247,0.2535,0.2579,0.2616,0.2662,0.2739,0.2781,0.2858,0.2921,0.3042,0.3093,0.3167,0.3175,0.322,0.3186,0.3179,0.3181,0.3179,0.3187,0.3227,0.3228,0.3229,0.3229,0,0.2353,0.2371,0.2432,0.2503,0.2555,0.2612,0.2669,0.2702,0.275,0.2801,0.2879,0.2928,0.3027,0.3105,0.3184,0.3224,0.3238,0.324,0.3256,0.325,0.3236,0.3249,0.3111,0.3237,0.3236,0.3235,0.3235,0.3235,0.2411,0.2459,0.2522,0.2592,0.2639,0.2693,0.2745,0.2787,0.2852,0.2934,0.2953,0.3036,0.3103,0.3211,0.3254,0.3322,0.3314,0.3336,0.3342,0.3348,0.3352,0.3223,0.3336,0.3336,0.3336,0.3336,0.3335,0,0.2502,0.2544,0.2608,0.2688,0.2745,0.275,0.2815,0.2863,0.2935,0.2995,0.3058,0.315,0.3227,0.3285,0.3365,0.3409,0.3418,0.3429,0.3428,0.3439,0.3352,0.3332,0.3422,0.3422,0.3422,0.3422,0.3422,0.3422,0.2556,0.264,0.2666,0.2776,0.2818,0.2899,0.2937,0.2989,0.3037,0.3139,0.3203,0.324,0.3301,0.3386,0.3459,0.3475,0.3505,0.3517,0.3534,0.3453,0.3444,0.3435,0.3417,0.3522,0.3522,0.3615,0.3616,0.3617]},{"header":{"parameterUnit":"m.s-1","parameterCategory":1,"la1":30.2991,"la2":30.254,"lo1":-89.0895,"lo2":-89.0444,"dy":0.0017,"dx":0.0017,"nx":28,"ny":28,"refTime":"2024-10-01T03:00:00:Z","depth":0,"parameterNumber":3,"parameterNumberName":"V-component_of_WINDS"},"data":[0,0,0,0,0,0,0,0,0,0,0,0,0,0,0,0,0,0,0,0,0,0,0,0,0,0,0,0,0,0,0,0,0,0,0,0,0,0,0,0,0,0,0,0,0,0,0,0,0,0,0,0,0,0,0,0,0,0,-1.7989,-1.7988,0,-1.7909,-1.7909,-1.7908,-1.7928,-1.7929,-1.7931,-1.7932,-1.7842,-1.7838,-1.7834,0,0,0,0,0,0,0,0,0,0,0,0,0,-1.8149,-1.8146,-1.7989,-1.7988,-1.7987,-1.791,-1.7908,-1.7907,-1.7927,-1.7929,-1.7931,-1.7933,-1.7843,-1.7839,-1.7834,0,0,0,0,0,0,0,0,0,0,0,0,0,-1.8075,-1.8145,-1.7989,-1.7988,-1.7987,-1.791,-1.7908,-1.7907,-1.7927,-1.7929,-1.7932,-1.7934,-1.7845,-1.7839,-1.7833,-1.775,0,0,-1.7816,-1.7813,0,0,0,0,0,0,0,0,-1.808,-1.8069,-1.7989,-1.7988,-1.7986,-1.7931,-1.7932,-1.7854,-1.7926,-1.7949,-1.7932,-1.7935,-1.7869,-1.7861,-1.7841,-1.7746,-1.7742,-1.7815,-1.7812,-1.7809,-1.7808,0,0,0,0,0,0,0,-1.8085,-1.8073,-1.7957,-1.7988,-1.7986,-1.7988,-1.798,-1.7917,-1.7896,-1.7947,-1.7949,-1.794,-1.7869,-1.7847,-1.7839,-1.7741,-1.7815,-1.781,-1.7807,-1.7804,-1.7571,-1.7569,0,0,0,0,0,0,-1.8092,-1.8077,-1.796,-1.7955,-1.804,-1.7984,-1.7975,-1.7946,-1.7897,-1.7892,-1.7938,-1.7941,-1.7855,-1.7846,-1.7836,-1.7733,-1.7809,-1.7804,-1.78,-1.7574,-1.7571,-1.7568,0,0,0,0,0,0,-1.8095,-1.8081,-1.7963,-1.8016,-1.8001,-1.7978,-1.7946,-1.7943,-1.7921,-1.789,-1.7886,-1.7919,-1.7857,-1.7844,-1.7772,-1.7731,-1.7801,-1.7796,-1.7577,-1.7573,-1.7569,-1.7529,0,0,0,0,0,0,-1.81,-1.8082,-1.8052,-1.8016,-1.7999,-1.7902,-1.7944,-1.794,-1.7912,-1.7916,-1.7872,-1.7866,-1.7858,-1.778,-1.7766,-1.7724,-1.7791,-1.7581,-1.7575,-1.7571,-1.7533,-1.7524,-1.7515,0,0,0,0,0,-1.8106,-1.8042,-1.8051,-1.8036,-1.7961,-1.79,-1.7889,-1.7883,-1.7909,-1.7877,-1.7857,-1.7868,-1.7739,-1.7773,-1.7757,-1.7712,-1.7583,-1.7577,-1.7571,-1.7537,-1.7526,-1.7516,0,0,0,0,0,0,-1.8071,-1.8037,-1.8046,-1.797,-1.7938,-1.7903,-1.7862,-1.7871,-1.7829,-1.7833,-1.7825,-1.7815,-1.774,-1.7719,-1.7758,-1.7628,-1.7664,-1.7654,-1.7644,-1.7632,-1.7624,-1.7628,-1.7786,0,0,0,0,0,-1.8056,-1.8011,-1.7983,-1.7918,-1.7902,-1.7885,-1.7858,-1.7857,-1.7822,-1.7807,-1.7782,-1.7745,-1.7696,-1.7664,-1.7617,-1.7532,-1.7521,-1.7493,-1.7485,-1.7477,-1.7468,-1.7419,-1.7405,-1.7548,-1.7548,-1.7548,0,0,-1.8021,-1.7997,-1.7969,-1.7911,-1.7886,-1.7837,-1.7873,-1.7821,-1.7784,-1.7798,-1.7728,-1.7709,-1.7667,-1.7588,-1.7551,-1.7568,-1.7427,-1.7469,-1.7464,-1.7458,-1.7411,-1.7398,-1.7386,-1.7544,-1.7544,-1.7545,0,0,-1.7932,-1.7912,-1.7855,-1.783,-1.7793,-1.7782,-1.7769,-1.7733,-1.7721,-1.7652,-1.7662,-1.7616,-1.7533,-1.7502,-1.7476,-1.7378,-1.7385,-1.7363,-1.7314,-1.7266,-1.7255,-1.7245,-1.7207,-1.7194,-1.7354,-1.7354,-1.7354,0,-1.7893,-1.7823,-1.7823,-1.777,-1.7743,-1.7758,-1.7698,-1.7673,-1.7621,-1.7601,-1.7622,-1.7517,-1.749,-1.7403,-1.7379,-1.7358,-1.734,-1.7366,-1.7258,-1.7247,-1.7238,-1.7201,-1.7187,-1.7352,-1.7352,-1.7352,-1.7353,0,-1.7775,-1.7726,-1.7684,-1.7637,-1.7606,-1.7549,-1.7539,-1.7506,-1.7508,-1.7495,-1.7423,-1.7392,-1.7338,-1.7319,-1.7319,-1.723,-1.7242,-1.726,-1.7295,-1.7222,-1.7187,-1.7173,-1.7348,-1.7349,-1.735,-1.735,0,0,-1.7659,-1.7615,-1.7599,-1.7577,-1.7539,-1.7499,-1.7443,-1.7394,-1.7365,-1.733,-1.728,-1.721,-1.7227,-1.7197,-1.7194,-1.7153,-1.7074,-1.7177,-1.7175,-1.7156,-1.6972,-1.6956,-1.694,-1.7081,-1.7079,-1.7076,-1.6974,0,-1.7564,-1.7468,-1.7468,-1.7378,-1.7331,-1.7346,-1.7297,-1.7266,-1.7253,-1.7209,-1.7193,-1.7143,-1.7171,-1.7152,-1.7113,-1.7092,-1.7037,-1.71,-1.7031,-1.7028,-1.7037,-1.6922,-1.6904,-1.6809,-1.6961,-1.6959,-1.6957,0,-1.7441,-1.7404,-1.731,-1.7278,-1.7259,-1.7215,-1.7169,-1.7129,-1.7094,-1.7087,-1.7055,-1.7058,-1.6998,-1.7039,-1.6954,-1.6997,-1.6969,-1.6955,-1.6951,-1.6941,-1.6985,-1.6905,-1.6779,-1.6764,-1.6937,-1.6938,-1.694,0,-1.7361,-1.7289,-1.7223,-1.7204,-1.7166,-1.7135,-1.7117,-1.7085,-1.7055,-1.7015,-1.6995,-1.6948,-1.6921,-1.6883,-1.6872,-1.6903,-1.6786,-1.6827,-1.6775,-1.6775,-1.6746,-1.6747,-1.661,-1.6735,-1.6735,-1.6735,-1.6736,0,-1.7253,-1.7194,-1.7187,-1.7146,-1.708,-1.7079,-1.7013,-1.6997,-1.6969,-1.6923,-1.6933,-1.6889,-1.688,-1.6834,-1.6825,-1.6755,-1.6743,-1.6733,-1.6731,-1.673,-1.673,-1.6708,-1.6713,-1.6732,-1.6733,-1.6733,-1.6734,0,-1.7151,-1.7144,-1.7073,-1.7045,-1.7036,-1.6988,-1.6962,-1.6921,-1.6911,-1.6852,-1.6838,-1.6819,-1.6765,-1.6753,-1.6688,-1.6682,-1.6597,-1.6603,-1.661,-1.6609,-1.6557,-1.6561,-1.6397,-1.6374,-1.6518,-1.6516,-1.6515,0,-1.7081,-1.7036,-1.7004,-1.6975,-1.6957,-1.6911,-1.6882,-1.688,-1.6848,-1.6806,-1.6769,-1.6718,-1.6675,-1.6588,-1.6566,-1.6516,-1.6519,-1.6465,-1.6511,-1.6511,-1.6513,-1.6515,-1.6509,-1.6455,-1.6453,-1.6452,-1.6451,0,-1.6955,-1.6955,-1.6914,-1.6872,-1.6838,-1.6804,-1.6771,-1.6747,-1.674,-1.6704,-1.665,-1.6618,-1.6553,-1.65,-1.645,-1.6429,-1.6437,-1.6438,-1.6423,-1.6419,-1.6423,-1.6417,-1.6582,-1.644,-1.6441,-1.6442,-1.6443,-1.6443,-1.6864,-1.6825,-1.6796,-1.675,-1.6727,-1.6696,-1.6657,-1.6642,-1.6599,-1.6548,-1.6549,-1.649,-1.6455,-1.639,-1.6366,-1.6318,-1.6333,-1.6312,-1.6306,-1.63,-1.6294,-1.6435,-1.6309,-1.6309,-1.6309,-1.631,-1.631,0,-1.6736,-1.6719,-1.6678,-1.6633,-1.6597,-1.6614,-1.6579,-1.6545,-1.6494,-1.6463,-1.6423,-1.636,-1.631,-1.6286,-1.6235,-1.62,-1.6203,-1.6186,-1.6187,-1.6181,-1.6284,-1.6301,-1.6185,-1.6185,-1.6185,-1.6185,-1.6185,-1.6185,-1.6665,-1.6599,-1.6595,-1.6517,-1.65,-1.6444,-1.6422,-1.6393,-1.6369,-1.63,-1.6259,-1.6246,-1.6216,-1.6164,-1.6117,-1.6111,-1.6089,-1.6071,-1.6066,-1.6161,-1.6174,-1.6186,-1.6201,-1.6067,-1.6067,-1.5967,-1.5966,-1.5965]}]]